Weather in Lerida

Spain     41°37′11″N   0°37′41″E
temp.,
°C
wind,
m/s
gust,
m/s
humid.,
%
clouds,
%
prec.,
mm/h
press.,
hPa
HPBL,
m
31 july, sat
sat3123:00+24s36800 0.0 1010124
02:00+22s58849 0.1 1012311
05:00+20sw246670 0.5 1012117
08:00+20wsw346896 0.6 1012282
11:00+20sw4464100 0.0 1013635
14:00+24sw455130 0.1 10111048
17:00+27ssw5547100 0.3 10091414
20:00+25sw894665 1.0 10081100
1 august, sun
sun123:00+17wsw812681 2.3 1012716
02:00+15wsw7117228 2.3 1012449
05:00+14wsw46775 0.0 1012194
08:00+14sw34750 0.0 1014219
11:00+20wsw44510 0.0 1015879
14:00+25w45315 0.0 10131912
17:00+29w67211 0.0 10112720
20:00+27w552153 0.0 10121905
2 august, mon
mon223:00+21s453343 0.0 101465
02:00+18se2264100 0.0 101530
05:00+17e1274100 0.0 101618
08:00+18ese23738 0.0 101699
11:00+24sse12487 0.0 10161384
14:00+28ssw443661 0.0 10152198
17:00+29s65323 0.0 10131990
20:00+26s554397 0.0 1013679
3 august, tue
tue323:00+21nne02709 1.1 101572
02:00+19ese338086 1.1 101552
05:00+18se228542 0.2 101621
08:00+19e11826 0.9 101656
11:00+24wsw33603 0.0 1016942
14:00+29wsw55400 0.0 10151647
17:00+32w5726100 0.0 10122229
20:00+29ssw65445 0.0 1012654
4 august, wed
wed423:00+23sse5871100 0.0 1013163
02:00+21e238050 0.0 101579
05:00+20ese118781 0.0 101423
08:00+21s1180100 0.0 101593
11:00+24sw3367100 0.0 1016831
14:00+29sw453323 0.0 10151379
17:00+33wsw58255 0.0 10122819
20:00+31sw56285 0.0 1012798